www.pogodaiklimat.ru

Погода и климат >> Архив погоды >> КНДР >> Канге


ПОГОДА в Канге

  • Прогноз погоды в Канге
  • Монитор погоды в Канге

АРХИВ ПОГОДЫ в Канге

Время (UTC), дата Ветер
(напр.,м/с)
 
Видим.   Явления Облачность Т
(С)
Тd
(С)
f
(%)
Тe
(С)
Тes
(С)
Комфортность P
(гПа)
Po
(гПа)
Тmin
(С)
Tmax
(С)
R
(мм)
R24
(мм)
S
(см)
12 12.06 штиль 0 20 км ясно +21.0 +17.1 78 +25 +25 комфорт 1008.0 972.0 +27.3 0.8
15 12.06 штиль 0 15 км 8/8 600 м
[Sc diur, vesp]
+18.8 +16.3 85 +20 +20 1009.6 973.6
18 12.06 штиль 0 20 км ясно +17.0 +14.4 85 +17 +17 1009.6 973.6
21 12.06 штиль 0 20 км 3/0
[Ci sp]
+15.6 +13.4 87 +15 +16 1009.7 973.7
00 13.06 штиль 0 20 км ясно +19.2 +16.5 84 +21 +34 комфорт 1009.1 973.0 +15.0
03 13.06 штиль 0 15 км 10/0 1500 м
[Ac trans]
+24.5 +18.3 68 +29 +40 душно 1007.7 971.8
06 13.06 штиль 0 10 км слаб. дождь 10/0 600 м
[As op]
+21.0 +17.8 82 +25 +29 комфорт 1007.3 971.4 0.0
09 13.06 штиль 0 15 км в посл. час дождь 10/10 600 м
[Sc]
+21.0 +16.8 77 +24 +24 комфорт 1007.5 971.6 1
12 13.06 штиль 0 15 км слаб. дождь 10/0 600 м
[As op]
+19.0 +16.2 84 +20 +20 1008.3 972.3 +27.6 1
15 13.06 штиль 0 15 км 10/10 600 м
[Sc diur, vesp]
+17.3 +14.9 86 +17 +17 1008.1 972.1
18 13.06 штиль 0 15 км 10/10 600 м
[Sc diur, vesp]
+16.7 +14.4 86 +17 +17 1007.1 971.2
21 13.06 штиль 0 15 км 10/10 600 м
[Sc diur, vesp]
+16.4 +14.5 89 +16 +16 1007.1 971.1
00 14.06 штиль 0 15 км 10/10 600 м
[Sc diur, vesp]
+17.1 +15.0 87 +17 +17 1006.9 971.0 +15.4
03 14.06 штиль 0 20 км 9/9 600 м
[Sc diur, vesp]
+20.2 +15.7 75 +23 +25 комфорт 1005.6 969.8
06 14.06 штиль 0 15 км 8/8 600 м
[Sc diur, vesp]
+23.0 +17.7 72 +28 +32 душно 1003.7 967.9
09 14.06 СЗ 5 10 км ливневой дождь 10/10 600 м
[Cb cap]
+20.4 +15.3 73 +23 +23 комфорт 1003.8 968.0 0.0
12 14.06 штиль 0 20 км 4/4 600 м
[Sc diur, vesp]
+17.0 +14.4 85 +17 +17 1004.9 969.1 +26.0 0.1
18 14.06 штиль 0 20 км 3/3 600 м
[Sc diur, vesp]
+13.8 +11.7 87 +13 +13 1003.9 968.1
00 15.06 штиль 0 15 км 10/10 600 м
[Sc diur, vesp]
+16.4 +13.7 84 +16 +16 1004.1 968.3 +13.5
06 15.06 штиль 0 10 км слаб. дождь 10/0 600 м
[As op]
+18.7 +13.6 72 +19 +23 1001.8 966.0 1
12 15.06 штиль 0 20 км 9/9 600 м
[Sc diur, vesp]
+18.7 +14.5 77 +19 +19 1003.2 967.4 +22.0 1
18 15.06 штиль 0 15 км 8/8 600 м
[Sc diur, vesp]
+15.0 +12.4 84 +15 +15 1005.7 969.7
00 16.06 штиль 0 20 км 10/10 600 м
[Sc diur, vesp]
+16.7 +11.2 70 +17 +17 1007.8 971.8 +13.8
06 16.06 штиль 0 20 км 5/5 600 м
[Sc diur, vesp]
+22.2 +15.1 64 +26 +36 душно 1006.7 970.8
12 16.06 штиль 0 15 км 10/10 600 м
[Sc diur, vesp]
+20.2 +14.6 70 +22 +22 комфорт 1008.3 972.3 +23.5
18 16.06 штиль 0 20 км ясно +13.6 +11.3 86 +13 +13 1009.9 973.8
00 17.06 штиль 0 20 км 8/8 600 м
[Sc diur, vesp]
+16.4 +13.2 81 +16 +19 1010.9 974.8 +12.6
06 17.06 штиль 0 20 км 5/5 600 м
[Sc diur, vesp]
+25.5 +16.0 56 +29 +39 душно 1008.5 972.5
09 17.06 штиль 0 20 км 4/4 600 м
[Sc diur, vesp]
+25.5 +14.5 51 +28 +30 жарко 1008.1 972.1
12 17.06 штиль 0 15 км 10/10 600 м
[Sc diur, vesp]
+21.0 +16.0 73 +24 +24 комфорт 1008.7 972.7 +26.5
15 17.06 штиль 0 15 км в посл. час дождь 10/10 600 м
[Sc diur, vesp]
+18.4 +16.0 86 +19 +19 1010.1 974.1 0.0
18 17.06 штиль 0 15 км 10/10 600 м
[Sc diur, vesp]
+17.4 +14.9 85 +17 +17 1010.3 974.3 0.0
21 17.06 штиль 0 15 км 10/10 600 м
[Sc diur, vesp]
+17.3 +14.9 86 +17 +17 1010.1 974.1
00 18.06 штиль 0 20 км 10/0 1500 м
[Ac trans]
+19.4 +14.4 73 +21 +26 комфорт 1009.1 973.1 +16.8 0.0
03 18.06 штиль 0 20 км 10/10 600 м
[Sc diur, vesp]
+21.0 +14.9 68 +24 +24 комфорт 1008.2 972.2
06 18.06 штиль 0 10 км слаб. дождь 10/0 600 м
[As op]
+19.3 +16.1 82 +21 +25 комфорт 1007.8 971.9 0.0
09 18.06 штиль 0 10 км слаб. дождь 10/0 600 м
[As op]
+17.0 +14.4 85 +17 +18 1007.8 971.9 0.5
12 18.06 штиль 0 15 км 6/6 600 м
[Sc diur, vesp]
+17.0 +14.6 86 +17 +17 1008.4 972.4 +22.4 0.5
15 18.06 штиль 0 15 км 5/5 600 м
[Sc diur, vesp]
+16.0 +13.9 87 +16 +16 1008.8 972.8
18 18.06 штиль 0 20 км 3/3 600 м
[Sc diur, vesp]
+14.8 +12.6 87 +14 +14 1008.4 972.4
21 18.06 штиль 0 15 км 10/0 1500 м
[Ac trans]
+15.0 +13.0 88 +15 +15 1009.0 973.0
00 19.06 штиль 0 15 км 10/0 1500 м
[Ac trans]
+15.9 +13.6 86 +16 +21 1009.0 973.0 +13.8
03 19.06 штиль 0 20 км 3/3 600 м
[Sc diur, vesp]
+20.0 +15.1 73 +22 +41 комфорт 1007.3 973.1
06 19.06 З 3 20 км ясно +26.5 +18.9 63 +32 +44 очень
душно
1005.4 969.4
09 19.06 штиль 0 20 км ясно +27.8 +16.6 51 +31 +35 душно 1002.8 967.1

 

Местоположение метеостанции Канге (КНДР): широта 40.97 долгота 126.60 высота над уровнем моря 306 м.

В архиве по умолчанию представлена погода в Канге за последнюю неделю. Архивные данные за месяц целиком и за предыдущие месяцы, начиная с января 2011 года, Вы можете получить, выбрав интересующий диапазон дат из раскрывающегося списка и нажав кнопку "Ввод!".


*Определитесь, кто Вы:
робот инопланетянин человек

Внимание! Время в таблицах - всемирное. Для получения местного времени необходимо прибавить поправку, которая равна 9 ч.

Смотрите также архив погоды в соседних городах и на ближайших метеорологических станциях:

Погода в Цзиане (Цзяньси, Китай) (40 км)
Погода в Джангджине (КНДР) (86 км)
Погода в Линьцзяне (Гирин, Китай) (87 км)
Погода в Чунгане (КНДР) (93 км)
Погода в Хыйчхоне (КНДР) (94 км)
Погода в Пунгсане (КНДР) (131 км)
Погода в Чанбае (Гирин, Китай) (137 км)
Погода в Хесене (КНДР) (139 км)
Погода в Хамхыне (КНДР) (141 км)
Погода на Плотине Сапунг (КНДР) (152 км)

Пояснения к столбцам:

Ветер - указаны скорость ветра в м/с - средняя за 10 мин, порывы в срок и между сроками (в фигурных скобках) и направление, откуда дует ветер: С - северный, СВ - северо-восточный, В - восточный, ЮВ - юго-восточный, Ю - южный, ЮЗ - юго-западный, З - западный, СЗ - северо-западный.
Видимость - горизонтальная дальность видимости в метрах или километрах. При видимости от 1 до 10 км при отсутствии осадков обычно наблюдается дымка, при ухудшении видимости до 1 км и менее - туман. В сухую погоду видимость может ухудшаться дымом, пылью или мглою.
Явления - указаны атмосферные явления, наблюдавшиеся в срок или в последний час перед сроком; фигурными скобками обозначены явления, наблюдавшиеся между сроками (за 1-3 часа до срока); квадратными скобками обозначены град или гололедные отложения с указанием их диаметра в мм.
Облачность - указаны через наклонную черту общая и нижняя облачность в баллах и высота нижней границы облаков в метрах; квадратными скобками обозначены формы облаков: Ci - перистые, Cs - перисто-слоистые, Cc - перисто-кучевые, Ac - высококучевые, As - высокослоистые, Sc - слоисто-кучевые, Ns - слоисто-дождевые, Cu - кучевые, Cb - кучево-дождевые. Подробнее классификацию облаков см. в Атласе облаков (PDF).
T - Температура воздуха - температура, измеренная на высоте 2 м над землей.
Td - Температура точки росы - температура, при понижении до которой содержащийся в воздухе водяной пар достигнет насыщения.
f - Относительная влажность воздуха - влажноcть воздуха, измеренная на высоте 2 м над землей.
Te - Эффективная температура - температура, которую ощущает одетый по сезону человек в тени. Характеристика душности погоды. При расчете учитывается влияние влажности воздуха и скорости ветра на теплоощущения человека.
Tes - Эффективная температура на солнце - температура, которую ощущает человек, с поправкой на солнечный нагрев. Характеристика знойности погоды. Зависит от высоты солнца над горизонтом, облачности и скорости ветра. Ночью, в пасмурную погоду, а также при ветре 12 м/с и более поправка равна нулю.
P - Атмосферное давление - приведенное к уровню моря атмосферное давление.
Po - Атмосферное давление - измеренное на уровне метеостанции атмосферное давление.
Tmin - Минимальная температура - минимум температуры воздуха на высоте 2 м над землей.
Tmax - Максимальная температура - максимум температуры воздуха на высоте 2 м над землей.
R - Количество осадков - Количество выпавших осадков за период времени, мм. При наведении курсора мыши на число - период времени, за который выпало указанное количество осадков.
R24 - Количество осадков - Количество выпавших осадков за 24 часа, мм.
S - Снежный покров - Высота снежного покрова, см. При наведении курсора мыши на число - состояние снежного покрова и степень покрытия местности в баллах.